This demonstration page uses our WeatherBlox Daily Observations layout. Learn more.

39.92423, -83.80882

Hourly Observations for September 21, 2017

Temp ( °F °C ) Dew Point ( °F °C ) Humidity (%) Winds ( mph kmh ) Pressure ( in mb ) Visibility ( mi km ) Precip ( " mm )
12:56 am 00:56 Clear 64 17.8 62 16.7 93 93 Calm 30 1016 8 12.874752 0 0
1:56 am 01:56 Clear with Mist and Fog 62 16.7 61 16.1 96 96 Calm 30.06 1018 4 6.437376 0 0
2:27 am 02:27 Clear with Mist and Fog 64 18 63 17 94 94 Calm 30.09 1019 1.5 2.414016 0 0
2:39 am 02:39 Clear with Mist and Fog 63 17 63 17 100 100 Calm 30.09 1019 3 4.828032 0 0
2:52 am 02:52 Clear with Mist and Fog 63 17 63 17 100 100 ENE 3 6 30.09 1019 1.75 2.816352 0 0
2:56 am 02:56 Clear with Mist and Fog 63 17.2 62 16.7 97 97 E 3 6 30.06 1018 0.75 1.207008 0 0
3:00 am 03:00 Mostly Cloudy with Mist and Fog 63 17 63 17 100 100 E 3 6 30.09 1019 0.75 1.207008 0 0
3:04 am 03:04 Mostly Clear with Mist and Fog 63 17 63 17 100 100 E 3 6 30.09 1019 1.25 2.01168 0 0
3:12 am 03:12 Partly Cloudy with Mist and Fog 63 17 63 17 100 100 E 3 6 30.09 1019 2.5 4.02336 0 0
3:22 am 03:22 Mostly Clear with Mist and Fog 61 16 61 16 100 100 ESE 3 6 30.06 1018 4 6.437376 0 0
3:56 am 03:56 Clear with Mist and Fog 63 17.2 62 16.7 97 97 Calm 30.03 1017 4 6.437376 0 0
4:29 am 04:29 Clear with Mist and Fog 63 17 61 16 94 94 Calm 30.09 1019 1.25 2.01168 0 0
4:33 am 04:33 Clear with Mist and Fog 63 17 61 16 94 94 Calm 30.09 1019 0.75 1.207008 0 0
4:42 am 04:42 Clear with Mist and Fog 61 16 61 16 100 100 E 3 6 30.09 1019 2 3.218688 0 0
4:56 am 04:56 Mostly Cloudy with Mist and Fog 61 16.1 60 15.6 97 97 E 5 7 30.06 1018 1 1.609344 0 0
4:59 am 04:59 Mostly Cloudy with Fog 61 16 61 16 100 100 E 3 6 30.09 1019 0.5 0.804672 0 0
5:11 am 05:11 Mostly Cloudy with Mist and Fog 61 16 61 16 100 100 E 5 7 30.09 1019 1 1.609344 0 0
5:15 am 05:15 Partly Cloudy with Mist and Fog 61 16 61 16 100 100 E 5 7 30.09 1019 2 3.218688 0 0
5:26 am 05:26 Mostly Clear with Mist and Fog 61 16 61 16 100 100 ESE 3 6 30.09 1019 4 6.437376 0 0
5:56 am 05:56 Mostly Clear with Mist and Fog 61 16.1 61 16.1 100 100 Calm 30.06 1018 2.5 4.02336 0 0
6:18 am 06:18 Partly Cloudy with Mist and Fog 61 16 61 16 100 100 E 3 6 30.09 1019 4 6.437376 0 0
6:56 am 06:56 Clear with Mist and Fog 61 16.1 61 16.1 100 100 SE 3 6 30.09 1019 5 8.04672 0 0
7:46 am 07:46 Partly Cloudy with Mist and Fog 63 17 63 17 100 100 Calm 30.12 1020 2.5 4.02336 0 0
7:56 am 07:56 Partly Cloudy with Mist and Fog 63 17.2 62 16.7 97 97 Calm 30.09 1019 4 6.437376 0 0
8:56 am 08:56 Mostly Cloudy 69 20.6 67 19.4 93 93 Calm 30.09 1019 7 11.265408 0 0
9:56 am 09:56 Sunny 75 23.9 69 20.6 82 82 S 3 6 30.09 1019 10 16.09344 0 0
10:56 am 10:56 Sunny 80 26.7 70 21.1 71 71 SW 5 7 30.09 1019 10 16.09344 0 0
11:56 am 11:56 Sunny 84 28.9 71 21.7 65 65 N 5 7 30.09 1019 10 16.09344 0 0
12:56 pm 12:56 Sunny 84 28.9 70 21.1 63 63 Calm 30.09 1019 10 16.09344 0 0
1:56 pm 13:56 Partly Cloudy 87 30.6 70 21.1 57 57 N 6 9 30.06 1018 10 16.09344 0 0
2:56 pm 14:56 Mostly Cloudy 87 30.6 68 20 53 53 N 3 6 30.06 1018 10 16.09344 0 0
3:56 pm 15:56 Mostly Cloudy 86 30 68 20 55 55 E 3 6 30.03 1017 10 16.09344 0 0
4:56 pm 16:56 Mostly Cloudy 88 31.1 68 20 52 52 N 3 6 30.03 1017 10 16.09344 0 0
5:56 pm 17:56 Partly Cloudy 81 27.2 71 21.7 72 72 Calm 30.03 1017 10 16.09344 0 0
6:56 pm 18:56 Sunny 77 25 69 20.6 77 77 N 3 6 30.03 1017 10 16.09344 0 0
7:56 pm 19:56 Clear 73 22.8 68 20 84 84 Calm 30.06 1018 10 16.09344 0 0
8:56 pm 20:56 Clear 69 20.6 67 19.4 93 93 ESE 3 6 30.06 1018 10 16.09344 0 0
9:56 pm 21:56 Mostly Clear 70 21.1 67 19.4 90 90 Calm 30.06 1018 10 16.09344 0 0
10:56 pm 22:56 Partly Cloudy 68 20 67 19.4 96 96 E 5 7 30.06 1018 10 16.09344 0 0
11:56 pm 23:56 Mostly Cloudy 67 19.4 66 18.9 97 97 Calm 30.06 1018 8 12.874752 0 0

Powered by AerisWeather